Location: Newark
(50.8922°N, 11.6094°E)
Time: 13:39:06
(UTC+00:00)

N. Korean satellite - Pass Details

Date: 26 January 2020
Orbit: 456 x 505 km, 97.2° (Epoch: 24 February)

Event Time Altitude Azimuth Distance (km) Brightness Sun altitude
Rises 05:15:20 0° 12° (NNE) 2,537 10.2 -16.2°
Reaches altitude 10° 05:17:23 10° 12° (NNE) 1,662 9.3 -15.8°
Maximum altitude 05:20:57 85° 284° (WNW) 493 6.4 -15.3°
Drops below altitude 10° 05:24:34 10° 196° (SSW) 1,675 9.2 -14.7°
Sets 05:26:38 0° 196° (SSW) 2,560 10.2 -14.4°
